星链-31657 (STARLINK-31657 )

导读 | 星芒AI

STARLINK-31657 是 SpaceX Starlink 项目中的一颗低轨通信卫星,属于第三代 Starlink 卫星(v1.5 或 v2 版本)。该卫星于 2023 年发射,部署在约 550 公里的轨道高度,用于提供全球宽带互联网服务。它采用先进的推进系统和激光通信技术,以提高网络速度和稳定性。作为 Starlink 卫星群的一部分,STARLINK-31657 支持偏远地区的高速互联网接入,并具备自动避撞功能,以确保太空安全。

基本信息
目录编号:
59487
目录名称:
STARLINK-31657
国际标识:
2024-071D
轨道中心:
EARTH
卫星名称:
星链-31657
卫星全名:
星链-31657 (STARLINK-31657 )
卫星状态:
在轨 (已飞行573 天)
发射日期:
2024-04-13 UTC
国别 :
美国 (US)
星等 :
--
轨道信息
数据来源 国际轨道数据
星历时间: 2025-11-07T08:06:55+0800
13小时前
查看轨道信息
半长轴: 6861.151km
偏心率: 0.0000729
轨道倾角: 43.005°
近地点辐角 254.411°
升交点赤经 312.512°
平近点角 105.666°
近地点: 482.515km
远地点: 483.517km
周期: 94.266分钟
每日圈数: 15.275918
详细信息
固有亮度:
5
最大亮度:
1.5
卫星平台:
Starlink v2.0 mini
覆盖范围:
全球
运营商:
太空探索技术公司
运营商所在国:
美国
制造商(研发单位):
太空探索技术公司
制造商所在国:
美国
使用方式:
暂无
卫星简介
星链(Starlink)计划是由太空探索技术公司(SpaceX)提出的一个巨型低轨卫星互联网星座项目,计划在2019年至2024年间在太空搭建由约1.2万颗卫星组成的“星链”网络,其中1584颗将部署在地球上空550千米处的近地轨道,并从2020年开始工作。该卫星仍在工作。
2D轨道图
3D轨道图
轨道高度分析图
轨道倾角分析图
轨道综合分析图
查看轨道综合分析图